GW0360 Weather Reports


Display with metric or nautical units.
time (UTC)temp
F
wind
direction
speed
MPH
gust
MPH
rain 1hr
in
rain 24hr
in
rain mn
in
humidity
%
barometer
mb
20260905072048 78 0 0.0 2.0 0.00 0.00 0.00 73 1013.6
20260905071642 78 0 0.0 2.0 0.00 0.00 0.00 73 1013.8
20260905071043 78 226 0.0 1.0 0.00 0.00 0.00 73 1013.7
20260905070543 78 226 0.0 1.0 0.00 0.00 0.00 73 1013.7
20260905070101 77 0 0.0 1.0 0.00 0.00 0.00 74 1013.9
20260905065702 77 0 0.0 0.0 0.00 0.00 0.00 74 1013.9
20260905065043 77 0 0.0 0.0 0.00 0.00 0.00 74 1013.8
20260905064601 77 0 0.0 0.0 0.00 0.00 0.00 74 1013.9
20260905064044 78 0 0.0 0.0 0.00 0.00 0.00 73 1013.9
20260905063543 78 0 0.0 0.0 0.00 0.00 0.00 73 1014.0
20260905063102 78 0 0.0 0.0 0.00 0.00 0.00 73 1013.8
20260905062543 78 0 0.0 1.0 0.00 0.00 0.00 72 1013.8
20260905062045 78 0 0.0 1.0 0.00 0.00 0.00 71 1013.8
20260905061606 79 0 0.0 1.0 0.00 0.00 0.00 71 1013.8
20260905061041 79 0 0.0 1.0 0.00 0.00 0.00 71 1014.0
20260905060543 79 0 0.0 1.0 0.00 0.00 0.00 71 1013.9
20260905060108 79 0 0.0 1.0 0.00 0.00 0.00 71 1014.0
20260905055546 79 0 0.0 1.0 0.00 0.00 0.00 71 1014.0
20260905055043 79 0 0.0 1.0 0.00 0.00 0.00 70 1013.9
20260905054616 79 0 0.0 1.0 0.00 0.00 0.00 70 1013.9
20260905054043 79 0 0.0 1.0 0.00 0.00 0.00 70 1014.0
20260905053547 80 0 0.0 2.0 0.00 0.00 0.00 69 1013.8
20260905053108 80 0 0.0 2.0 0.00 0.00 0.00 69 1013.9
20260905052547 80 0 0.0 1.0 0.00 0.00 0.00 70 1013.8
20260905052044 80 0 0.0 2.0 0.00 0.00 0.00 69 1013.8
20260905051601 80 0 0.0 2.0 0.00 0.00 0.00 69 1013.8
20260905051043 80 0 0.0 1.0 0.00 0.00 0.00 69 1013.8
20260905050545 80 180 0.0 1.0 0.00 0.00 0.00 69 1013.8
20260905050105 80 0 0.0 1.0 0.00 0.00 0.00 69 1013.8
20260905045543 80 0 0.0 1.0 0.00 0.00 0.00 70 1013.8
20260905045043 80 0 0.0 1.0 0.00 0.00 0.00 69 1013.7
20260905044607 80 0 0.0 1.0 0.00 0.00 0.00 69 1013.8
20260905044043 80 0 0.0 0.0 0.00 0.00 0.00 69 1013.7
20260905043543 80 0 0.0 1.0 0.00 0.00 0.00 68 1013.8
20260905043109 80 0 0.0 1.0 0.00 0.00 0.00 69 1013.6
20260905042543 81 0 0.0 2.0 0.00 0.00 0.00 67 1013.7
20260905042040 81 0 0.0 2.0 0.00 0.00 0.00 67 1013.8
20260905041602 81 0 0.0 0.0 0.00 0.00 0.00 67 1013.7
20260905041046 81 0 0.0 0.0 0.00 0.00 0.00 67 1013.7
20260905040543 81 0 0.0 0.0 0.00 0.00 0.00 66 1013.7
20260905040141 81 0 0.0 1.0 0.00 0.00 0.00 65 1013.6
20260905035543 82 0 0.0 1.0 0.00 0.00 0.00 65 1013.6
20260905035044 82 0 0.0 1.0 0.00 0.00 0.00 65 1013.8
20260905034606 82 0 0.0 0.0 0.00 0.00 0.00 64 1013.7
20260905034043 82 0 0.0 0.0 0.00 0.00 0.00 64 1013.7
20260905033543 82 0 0.0 1.0 0.00 0.00 0.00 63 1013.6
20260905033053 83 0 0.0 2.0 0.00 0.00 0.00 63 1013.6
20260905032548 83 0 0.0 2.0 0.00 0.00 0.00 63 1013.5
20260905032043 83 0 0.0 2.0 0.00 0.00 0.00 63 1013.4
20260905031600 82 225 0.0 1.0 0.00 0.00 0.00 64 1013.4
20260905031045 82 0 0.0 0.0 0.00 0.00 0.00 64 1013.4
20260905030543 83 0 0.0 1.0 0.00 0.00 0.00 64 1013.4
20260905030100 83 0 0.0 1.0 0.00 0.00 0.00 64 1013.2
20260905025543 83 0 0.0 2.0 0.00 0.00 0.00 65 1013.2
20260905025043 83 0 0.0 2.0 0.00 0.00 0.00 65 1013.1
20260905024601 82 0 0.0 0.0 0.00 0.00 0.00 66 1013.1
20260905024043 82 0 0.0 0.0 0.00 0.00 0.00 67 1012.9
20260905023543 82 0 0.0 0.0 0.00 0.00 0.00 67 1013.0
20260905023104 82 0 0.0 0.0 0.00 0.00 0.00 68 1012.8
20260905022542 83 0 0.0 0.0 0.00 0.00 0.00 68 1012.9
20260905022040 83 0 0.0 0.0 0.00 0.00 0.00 68 1012.8
20260905021600 83 0 0.0 0.0 0.00 0.00 0.00 68 1012.8
20260905021043 83 0 0.0 0.0 0.00 0.00 0.00 67 1012.8
20260905020540 83 0 0.0 0.0 0.00 0.00 0.00 67 1012.7
20260905020058 83 0 0.0 0.0 0.00 0.00 0.00 66 1012.6
20260905015543 84 0 0.0 0.0 0.00 0.00 0.00 65 1012.6
20260905015043 84 0 0.0 0.0 0.00 0.00 0.00 64 1012.6
20260905014557 85 0 0.0 0.0 0.00 0.00 0.00 63 1012.5
20260905014045 85 0 0.0 0.0 0.00 0.00 0.00 62 1012.5
20260905013543 85 0 0.0 1.0 0.00 0.00 0.00 63 1012.5
20260905013105 86 0 0.0 1.0 0.00 0.00 0.00 62 1012.4
20260905012544 86 0 0.0 0.0 0.00 0.00 0.00 60 1012.3
20260905012041 86 0 0.0 1.0 0.00 0.00 0.00 59 1012.3
20260905011619 87 0 0.0 1.0 0.00 0.00 0.00 59 1012.3
20260905011043 87 0 0.0 1.0 0.00 0.00 0.00 58 1012.4
20260905010544 88 0 0.0 1.0 0.00 0.00 0.00 57 1012.3
20260905010058 88 0 0.0 1.0 0.00 0.00 0.00 56 1012.3
20260905005543 88 0 0.0 1.0 0.00 0.00 0.00 55 1012.3
20260905005043 89 0 0.0 0.0 0.00 0.00 0.00 54 1012.3
20260905004607 89 0 0.0 1.0 0.00 0.00 0.00 54 1012.3
20260905004043 89 0 0.0 1.0 0.00 0.00 0.00 54 1012.3
20260905003544 90 0 0.0 1.0 0.00 0.00 0.00 53 1012.3
20260905003105 90 0 0.0 1.0 0.00 0.00 0.00 53 1012.2
20260905002545 90 0 0.0 1.0 0.00 0.00 0.00 52 1012.4
20260905002044 91 0 0.0 0.0 0.00 0.00 0.00 51 1012.4
20260905001611 91 0 0.0 2.0 0.00 0.00 0.00 51 1012.4
20260905001043 92 0 0.0 2.0 0.00 0.00 0.00 50 1012.4
20260905000544 92 0 0.0 4.0 0.00 0.00 0.00 49 1012.5
20260905000110 93 0 0.0 4.0 0.00 0.00 0.00 49 1012.5
20260904235543 93 0 1.0 4.0 0.00 0.00 0.00 47 1012.6
20260904235043 93 196 0.0 7.0 0.00 0.00 0.00 47 1012.6
20260904234607 94 0 1.0 7.0 0.00 0.00 0.00 47 1012.5
20260904234043 94 198 2.0 7.0 0.00 0.00 0.00 46 1012.7
20260904233543 94 203 0.0 6.0 0.00 0.00 0.00 46 1012.5
20260904233111 95 165 1.0 7.0 0.00 0.00 0.00 46 1012.6
20260904232543 95 219 1.0 8.0 0.00 0.00 0.00 46 1012.7
20260904232043 95 283 3.0 8.0 0.00 0.00 0.00 45 1012.5
20260904231603 95 186 1.0 7.0 0.00 0.00 0.00 45 1012.6
20260904231040 95 238 0.0 8.0 0.00 0.00 0.00 45 1012.7
20260904230544 95 221 1.0 8.0 0.00 0.00 0.00 44 1012.7
20260904230101 96 188 4.0 8.0 0.00 0.00 0.00 43 1012.7
20260904225543 96 271 1.0 5.0 0.00 0.00 0.00 44 1012.6
20260904225044 96 133 0.0 7.0 0.00 0.00 0.00 45 1012.6
20260904224600 96 223 3.0 9.0 0.00 0.00 0.00 43 1012.5
20260904224043 96 212 2.0 9.0 0.00 0.00 0.00 44 1012.6
20260904223543 96 162 2.0 10.0 0.00 0.00 0.00 44 1012.6
20260904223107 97 265 3.0 10.0 0.00 0.00 0.00 42 1012.5
20260904222540 97 200 4.0 9.0 0.00 0.00 0.00 42 1012.6
20260904222041 97 153 2.0 10.0 0.00 0.00 0.00 45 1012.6
20260904221605 97 227 3.0 10.0 0.00 0.00 0.00 45 1012.6
20260904221041 97 213 2.0 7.0 0.00 0.00 0.00 44 1012.5
20260904220544 97 167 1.0 10.0 0.00 0.00 0.00 44 1012.5
20260904220110 97 157 3.0 10.0 0.00 0.00 0.00 43 1012.6
20260904215543 97 186 1.0 8.0 0.00 0.00 0.00 44 1012.6
20260904215040 97 115 3.0 10.0 0.00 0.00 0.00 44 1012.7
20260904214603 97 241 4.0 10.0 0.00 0.00 0.00 43 1012.7
20260904214047 97 169 1.0 9.0 0.00 0.00 0.00 44 1012.7
20260904213540 97 231 2.0 9.0 0.00 0.00 0.00 43 1012.7
20260904213104 97 220 2.0 8.0 0.00 0.00 0.00 44 1012.7
20260904212541 97 309 3.0 7.0 0.00 0.00 0.00 44 1012.9
20260904212040 97 221 2.0 8.0 0.00 0.00 0.00 43 1012.8
20260904211602 97 136 2.0 8.0 0.00 0.00 0.00 44 1012.8
20260904211042 97 164 2.0 8.0 0.00 0.00 0.00 44 1012.9
20260904210544 97 175 3.0 8.0 0.00 0.00 0.00 44 1013.0
20260904205546 97 123 2.0 8.0 0.00 0.00 0.00 44 1013.0
20260904205043 97 0 2.0 8.0 0.00 0.00 0.00 43 1012.9
20260904204605 97 181 2.0 9.0 0.00 0.00 0.00 44 1012.9
20260904204043 97 234 3.0 9.0 0.00 0.00 0.00 45 1012.9
20260904203543 97 117 3.0 9.0 0.00 0.00 0.00 45 1013.0
20260904203058 97 255 2.0 10.0 0.00 0.00 0.00 45 1012.9
20260904202541 97 234 2.0 11.0 0.00 0.00 0.00 46 1013.0
20260904202041 97 255 3.0 11.0 0.00 0.00 0.00 46 1013.0
20260904201623 97 165 2.0 10.0 0.00 0.00 0.00 45 1013.0
20260904201041 97 194 1.0 12.0 0.00 0.00 0.00 46 1013.0
20260904200543 97 188 1.0 12.0 0.00 0.00 0.00 47 1013.1
20260904200109 96 42 4.0 12.0 0.00 0.00 0.00 48 1013.1
20260904195541 97 78 2.0 8.0 0.00 0.00 0.00 46 1013.1
20260904195045 96 232 2.0 8.0 0.00 0.00 0.00 46 1013.1
20260904194601 97 224 3.0 12.0 0.00 0.00 0.00 45 1013.2
20260904194040 96 216 2.0 13.0 0.00 0.00 0.00 48 1013.2
20260904193540 96 180 5.0 13.0 0.00 0.00 0.00 48 1013.4
20260904193108 96 208 2.0 9.0 0.00 0.00 0.00 48 1013.4
20260904192544 95 111 2.0 9.0 0.00 0.00 0.00 48 1013.4
20260904192040 95 161 2.0 9.0 0.00 0.00 0.00 49 1013.4
20260904191602 96 163 3.0 10.0 0.00 0.00 0.00 49 1013.5
20260904191040 95 234 2.0 10.0 0.00 0.00 0.00 50 1013.5
20260904190545 95 165 2.0 10.0 0.00 0.00 0.00 50 1013.6
20260904190105 94 144 2.0 8.0 0.00 0.00 0.00 51 1013.7
20260904185544 95 132 2.0 8.0 0.00 0.00 0.00 51 1013.7
20260904185047 95 114 3.0 9.0 0.00 0.00 0.00 50 1013.8
20260904184601 95 0 3.0 11.0 0.00 0.00 0.00 51 1013.8
20260904184044 95 180 5.0 11.0 0.00 0.00 0.00 49 1013.9
20260904183543 95 239 3.0 10.0 0.00 0.00 0.00 50 1013.9
20260904183118 95 74 3.0 12.0 0.00 0.00 0.00 51 1013.9
20260904182542 94 208 5.0 12.0 0.00 0.00 0.00 51 1014.0
20260904182040 94 0 2.0 12.0 0.00 0.00 0.00 52 1013.9
20260904181602 94 74 3.0 11.0 0.00 0.00 0.00 51 1014.0
20260904181040 94 271 2.0 11.0 0.00 0.00 0.00 52 1014.0
20260904180545 93 217 3.0 12.0 0.00 0.00 0.00 52 1014.2
20260904180115 93 203 5.0 12.0 0.00 0.00 0.00 52 1014.1
20260904175546 93 292 2.0 12.0 0.00 0.00 0.00 54 1014.2
20260904175040 93 263 5.0 12.0 0.00 0.00 0.00 52 1014.3
20260904174610 93 221 2.0 9.0 0.00 0.00 0.00 55 1014.4
20260904174040 93 277 3.0 10.0 0.00 0.00 0.00 54 1014.5
20260904173543 92 136 4.0 10.0 0.00 0.00 0.00 55 1014.4
20260904173117 92 167 2.0 15.0 0.00 0.00 0.00 56 1014.5
20260904172546 92 206 4.0 15.0 0.00 0.00 0.00 56 1014.4
20260904172041 92 249 4.0 8.0 0.00 0.00 0.00 55 1014.5
20260904171608 92 201 2.0 10.0 0.00 0.00 0.00 58 1014.6
20260904171040 92 213 5.0 10.0 0.00 0.00 0.00 57 1014.6
20260904170541 91 98 0.0 10.0 0.00 0.00 0.00 58 1014.6
20260904170108 91 232 4.0 10.0 0.00 0.00 0.00 59 1014.7
20260904165620 91 248 2.0 10.0 0.00 0.00 0.00 59 1014.6
20260904165043 90 237 1.0 10.0 0.00 0.00 0.00 58 1014.6
20260904164600 90 305 5.0 11.0 0.00 0.00 0.00 58 1014.7
20260904164044 90 180 3.0 11.0 0.00 0.00 0.00 59 1014.6
20260904163546 90 254 4.0 12.0 0.00 0.00 0.00 59 1014.7
20260904163107 90 198 5.0 14.0 0.00 0.00 0.00 58 1014.7
20260904162543 89 194 5.0 14.0 0.00 0.00 0.00 58 1014.6
20260904162042 90 227 4.0 14.0 0.00 0.00 0.00 57 1014.5
20260904161618 90 262 4.0 14.0 0.00 0.00 0.00 58 1014.5
20260904161040 90 238 5.0 11.0 0.00 0.00 0.00 59 1014.5
20260904160540 89 222 4.0 11.0 0.00 0.00 0.00 58 1014.6
20260904160059 88 202 3.0 8.0 0.00 0.00 0.00 61 1014.6
20260904155542 88 153 1.0 11.0 0.00 0.00 0.00 62 1014.6
20260904155044 88 157 4.0 11.0 0.00 0.00 0.00 62 1014.6
20260904154602 88 247 5.0 11.0 0.00 0.00 0.00 61 1014.6
20260904154043 87 207 4.0 11.0 0.00 0.00 0.00 62 1014.7
20260904153543 87 234 4.0 11.0 0.00 0.00 0.00 62 1014.7
20260904153108 87 221 4.0 10.0 0.00 0.00 0.00 63 1014.6
20260904152541 86 150 3.0 9.0 0.00 0.00 0.00 64 1014.7
20260904152040 86 185 2.0 12.0 0.00 0.00 0.00 65 1014.7
20260904151606 86 222 4.0 13.0 0.00 0.00 0.00 64 1014.7
20260904151040 85 205 3.0 13.0 0.00 0.00 0.00 65 1014.7
20260904150540 85 196 1.0 9.0 0.00 0.00 0.00 68 1014.9
20260904145542 84 309 3.0 8.0 0.00 0.00 0.00 68 1014.8
20260904145043 84 209 1.0 9.0 0.00 0.00 0.00 70 1014.8
20260904144622 84 244 2.0 9.0 0.00 0.00 0.00 69 1015.0
20260904144040 83 215 4.0 9.0 0.00 0.00 0.00 69 1014.9
20260904143546 83 184 2.0 6.0 0.00 0.00 0.00 70 1014.8
20260904143104 83 227 2.0 7.0 0.00 0.00 0.00 70 1014.9
20260904142541 83 211 1.0 8.0 0.00 0.00 0.00 72 1014.7
20260904142041 82 245 1.0 8.0 0.00 0.00 0.00 72 1014.8
20260904141604 82 153 1.0 6.0 0.00 0.00 0.00 73 1014.8
20260904141040 81 225 1.0 7.0 0.00 0.00 0.00 73 1014.7
20260904140540 81 140 2.0 7.0 0.00 0.00 0.00 74 1014.8
20260904135543 80 142 1.0 6.0 0.00 0.00 0.00 76 1014.7
20260904135043 79 181 2.0 6.0 0.00 0.00 0.00 76 1014.7
20260904134608 79 193 1.0 5.0 0.00 0.00 0.00 76 1014.7
20260904134043 79 0 0.0 4.0 0.00 0.00 0.00 76 1014.7
20260904133544 78 219 0.0 3.0 0.00 0.00 0.00 77 1014.6
20260904133103 78 0 0.0 3.0 0.00 0.00 0.00 78 1014.6
20260904132544 78 217 1.0 4.0 0.00 0.00 0.00 77 1014.6
20260904132043 78 229 0.0 4.0 0.00 0.00 0.00 78 1014.5
20260904131558 77 211 0.0 4.0 0.00 0.00 0.00 78 1014.5
20260904131044 77 0 0.0 4.0 0.00 0.00 0.00 78 1014.4
20260904130540 77 0 0.0 4.0 0.00 0.00 0.00 78 1014.5
20260904125540 77 186 0.0 3.0 0.00 0.00 0.00 79 1014.4
20260904125039 77 0 0.0 3.0 0.00 0.00 0.00 78 1014.5
20260904124609 77 0 0.0 3.0 0.00 0.00 0.00 78 1014.4
20260904124043 76 0 1.0 3.0 0.00 0.00 0.00 79 1014.4
20260904123543 76 173 0.0 1.0 0.00 0.00 0.00 80 1014.3
20260904123144 76 0 0.0 1.0 0.00 0.00 0.00 80 1014.1
20260904122543 76 0 0.0 2.0 0.00 0.00 0.00 80 1014.1
20260904122041 76 0 0.0 2.0 0.00 0.00 0.00 80 1014.1
20260904121602 76 0 0.0 2.0 0.00 0.00 0.00 79 1014.0
20260904121044 76 0 0.0 2.0 0.00 0.00 0.00 80 1014.0
20260904120542 76 0 0.0 4.0 0.00 0.00 0.00 79 1014.0
20260904120129 76 205 0.0 4.0 0.00 0.00 0.00 79 1014.0
20260904115540 76 215 1.0 4.0 0.00 0.00 0.00 78 1013.9
20260904115040 77 0 0.0 3.0 0.00 0.00 0.00 78 1013.9
20260904114559 77 232 0.0 3.0 0.00 0.00 0.00 77 1013.9
20260904114040 77 240 0.0 3.0 0.00 0.00 0.00 77 1013.9
20260904113542 77 229 0.0 3.0 0.00 0.00 0.00 77 1013.9
20260904113102 77 200 1.0 3.0 0.00 0.00 0.00 77 1013.7
20260904112543 77 0 0.0 2.0 0.00 0.00 0.00 77 1013.8
20260904112049 77 0 0.0 2.0 0.00 0.00 0.00 76 1013.8
20260904111612 77 0 0.0 6.0 0.00 0.00 0.00 76 1013.7
20260904111043 78 0 1.0 6.0 0.00 0.00 0.00 76 1013.6
20260904110543 78 264 0.0 5.0 0.00 0.00 0.00 77 1013.5
20260904110110 78 215 1.0 5.0 0.00 0.00 0.00 76 1013.4
20260904105539 78 0 2.0 7.0 0.00 0.00 0.00 76 1013.4
20260904105043 78 240 0.0 7.0 0.00 0.00 0.00 75 1013.3
20260904104600 78 187 2.0 7.0 0.00 0.00 0.00 75 1013.1
20260904104040 78 219 1.0 6.0 0.00 0.00 0.00 75 1013.1
20260904103542 79 238 1.0 8.0 0.00 0.00 0.00 74 1013.1
20260904103100 79 0 2.0 8.0 0.00 0.00 0.00 74 1013.1
20260904102540 79 208 1.0 8.0 0.00 0.00 0.00 73 1013.1
20260904102041 79 265 2.0 9.0 0.00 0.00 0.00 73 1013.0
20260904101603 79 221 2.0 9.0 0.00 0.00 0.00 73 1013.0
20260904101042 79 196 3.0 6.0 0.00 0.00 0.00 73 1013.0
20260904100628 79 0 1.0 7.0 0.00 0.00 0.00 72 1013.0
20260904095541 80 248 1.0 8.0 0.00 0.00 0.00 72 1013.0
20260904095044 80 268 2.0 9.0 0.00 0.00 0.00 72 1013.0
20260904094613 80 265 3.0 9.0 0.00 0.00 0.00 71 1012.7
20260904094043 80 196 2.0 10.0 0.00 0.00 0.00 72 1012.8
20260904093545 80 234 2.0 11.0 0.00 0.00 0.00 72 1012.8
20260904093106 80 0 3.0 11.0 0.00 0.00 0.00 72 1012.8
20260904092540 80 222 2.0 6.0 0.00 0.00 0.00 72 1012.7
20260904092043 80 263 1.0 6.0 0.00 0.00 0.00 72 1012.7
20260904091602 80 207 2.0 7.0 0.00 0.00 0.00 71 1012.6
20260904091043 80 202 2.0 7.0 0.00 0.00 0.00 71 1012.6
20260904090544 80 184 2.0 6.0 0.00 0.00 0.00 71 1012.6
20260904090101 80 240 1.0 7.0 0.00 0.00 0.00 71 1012.5
20260904085540 81 0 2.0 9.0 0.00 0.00 0.00 70 1012.5
20260904085041 81 0 2.0 9.0 0.00 0.00 0.00 70 1012.4
20260904084558 81 210 2.0 9.0 0.00 0.00 0.00 69 1012.4
20260904084040 81 210 1.0 9.0 0.00 0.00 0.00 69 1012.4
20260904083540 81 267 3.0 8.0 0.00 0.00 0.00 69 1012.3
20260904083058 81 273 2.0 7.0 0.00 0.00 0.00 69 1012.2
20260904082540 81 259 2.0 8.0 0.00 0.00 0.00 69 1012.2
20260904082040 81 248 2.0 8.0 0.00 0.00 0.00 69 1012.4
20260904081641 81 257 2.0 8.0 0.00 0.00 0.00 69 1012.3
20260904081040 81 261 2.0 8.0 0.00 0.00 0.00 69 1012.2
20260904080543 81 184 3.0 8.0 0.00 0.00 0.00 69 1012.3
20260904080059 81 238 2.0 9.0 0.00 0.00 0.00 69 1012.2
20260904075545 81 218 2.0 9.0 0.00 0.00 0.00 70 1012.3
20260904075042 81 207 1.0 4.0 0.00 0.00 0.00 70 1012.2
20260904074608 80 234 0.0 4.0 0.00 0.00 0.00 71 1012.3
20260904074040 80 214 1.0 4.0 0.00 0.00 0.00 71 1012.3
20260904073545 80 248 1.0 4.0 0.00 0.00 0.00 72 1012.3
20260904073108 80 0 0.0 3.0 0.00 0.00 0.00 72 1012.4
20260904072543 80 0 0.0 2.0 0.00 0.00 0.00 72 1012.5